This demonstration page uses our WeatherBlox Daily Observations layout. Learn more.

38.88101, -77.10428

Hourly Observations for April 14, 2020

Temp ( °F °C ) Dew Point ( °F °C ) Humidity (%) Winds ( mph kmh ) Pressure ( in mb ) Visibility ( mi km ) Precip ( " mm )
12:52 am 00:52 Partly Cloudy 54 12.2 35 1.7 49 49 NW 18 30 30.05 1018 10 16.0934 0 0
1:52 am 01:52 Partly Cloudy 52 11.1 32 0 47 47 NW 16 26 30.06 1018 10 16.0934 0 0
2:52 am 02:52 Mostly Clear 50 10 31 -0.6 48 48 NW 17 28 30.08 1019 10 16.0934 0 0
3:52 am 03:52 Mostly Clear 49 9.4 31 -0.6 50 50 NNW 13 20 30.07 1018 10 16.0934 0 0
4:52 am 04:52 Mostly Clear 48 8.9 30 -1.1 50 50 NNW 16 26 30.09 1019 10 16.0934 0 0
5:52 am 05:52 Mostly Cloudy 47 8.3 29 -1.7 50 50 NNW 13 20 30.12 1020 10 16.0934 0 0
6:52 am 06:52 Mostly Cloudy 47 8.3 30 -1.1 52 52 N 12 19 30.13 1020 10 16.0934 0 0
7:52 am 07:52 Mostly Cloudy 48 8.9 30 -1.1 50 50 NNW 12 19 30.15 1021 10 16.0934 0 0
8:52 am 08:52 Partly Cloudy 49 9.4 29 -1.7 46 46 NNW 18 30 30.16 1021 10 16.0934 0 0
9:52 am 09:52 Mostly Cloudy 50 10 30 -1.1 46 46 NNW 9 15 30.16 1021 10 16.0934 0 0
10:52 am 10:52 Mostly Cloudy 52 11.1 30 -1.1 43 43 NNW 7 11 30.16 1021 10 16.0934 0 0
11:52 am 11:52 Mostly Cloudy 54 12.2 30 -1.1 40 40 VRB 5 7 30.14 1021 10 16.0934 0 0
12:52 pm 12:52 Mostly Cloudy 56 13.3 30 -1.1 37 37 Calm 30.12 1020 10 16.0934 0 0
1:52 pm 13:52 Mostly Cloudy 57 13.9 31 -0.6 37 37 NNW 3 6 30.09 1019 10 16.0934 0 0
2:52 pm 14:52 Mostly Cloudy 59 15 33 0.6 38 38 NE 9 15 30.07 1018 10 16.0934 0 0
3:52 pm 15:52 Cloudy 58 14.4 31 -0.6 36 36 VRB 5 7 30.03 1017 10 16.0934 0 0
4:52 pm 16:52 Cloudy 58 14.4 34 1.1 41 41 ESE 3 6 30.01 1016 10 16.0934 0 0
5:52 pm 17:52 Mostly Cloudy 57 13.9 32 0 39 39 E 3 6 30 1016 10 16.0934 0 0
6:52 pm 18:52 Cloudy 57 13.9 30 -1.1 36 36 Calm 30 1016 10 16.0934 0 0
7:52 pm 19:52 Cloudy 55 12.8 34 1.1 45 45 N 7 11 30 1016 10 16.0934 0 0
8:52 pm 20:52 Cloudy 54 12.2 33 0.6 45 45 N 9 15 30.01 1016 10 16.0934 0 0
9:52 pm 21:52 Cloudy with Light Rain 47 8.3 40 4.4 77 77 NW 21 33 30.07 1018 7 11.26538 0.001 0.001
10:52 pm 22:52 Cloudy with Light Rain 43 6.1 39 3.9 86 86 NNW 21 33 30.09 1019 5 8.0467 0.04 1.016
11:52 pm 23:52 Cloudy with Light Rain 42 5.6 39 3.9 89 89 NW 16 26 30.11 1020 10 16.0934 0.06 1.524

Powered by AerisWeather